This is the latest recevied weather packets stored in our database for station/object KO4IDC-13. If no packets are shown the sender has not sent any weather packets the latest 10 day(s).
| Time | Temp. | Humidity | Pressure | Rain* | Wind** | Luminosity | Snow |
|---|---|---|---|---|---|---|---|
| 1778022426 | 13.33° C | 98% | 1009.5 hPa | 6.1 mm | - | 25 W/m² | - |
| 1778022122 | 13.89° C | 98% | 1009.5 hPa | 10.16 mm | - | 32 W/m² | - |
| 1778021818 | 15° C | 98% | 1009.5 hPa | 11.94 mm | - | 32 W/m² | - |
| 1778021515 | 16.67° C | 98% | 1009.4 hPa | 7.87 mm | - | 11 W/m² | - |
| 1778021211 | 16.67° C | 98% | 1009.4 hPa | 7.87 mm | - | 15 W/m² | - |
| 1778020909 | 16.67° C | 98% | 1009.3 hPa | 7.87 mm | - | 25 W/m² | - |
| 1778020606 | 16.67° C | 98% | 1009.3 hPa | 6.1 mm | - | 45 W/m² | - |
| 1778020302 | 16.67° C | 98% | 1009 hPa | 7.87 mm | - | 19 W/m² | - |
| 1778019998 | 16.67° C | 98% | 1009.4 hPa | 7.87 mm | - | 28 W/m² | - |
| 1778019695 | 16.67° C | 98% | 1009.4 hPa | 4.32 mm | - | 18 W/m² | - |
| 1778019392 | 16.67° C | 98% | 1009 hPa | 4.32 mm | - | 26 W/m² | - |
| 1778019088 | 16.67° C | 98% | 1009.4 hPa | 3.05 mm | - | 29 W/m² | - |
| 1778018786 | 16.67° C | 98% | 1009.3 hPa | 3.05 mm | - | 34 W/m² | - |
| 1778018483 | 16.67° C | 98% | 1009.3 hPa | 3.05 mm | - | 44 W/m² | - |
| 1778018181 | 16.67° C | 98% | 1009.3 hPa | 4.83 mm | - | 30 W/m² | - |
| 1778017879 | 16.67° C | 98% | 1009.3 hPa | 4.83 mm | - | 47 W/m² | - |
| 1778017577 | 16.67° C | 98% | 1009.3 hPa | 3.05 mm | - | 47 W/m² | - |
| 1778017274 | 16.67° C | 98% | 1009.3 hPa | 3.05 mm | - | 40 W/m² | - |
| 1778016971 | 16.67° C | 98% | 1009.4 hPa | 3.05 mm | - | 42 W/m² | - |
| 1778016668 | 16.67° C | 98% | 1009.3 hPa | 3.05 mm | - | 30 W/m² | - |
| 1778016364 | 16.67° C | 97% | 1009.3 hPa | 3.05 mm | - | 41 W/m² | - |
| 1778016062 | 16.11° C | 97% | 1009.3 hPa | 3.05 mm | - | 37 W/m² | - |
| 1778015758 | 16.11° C | 97% | 1009.3 hPa | 3.05 mm | - | 45 W/m² | - |
| 1778015455 | 16.11° C | 97% | 1009.4 hPa | 6.1 mm | - | 50 W/m² | - |
| 1778015152 | 16.11° C | 97% | 1009.5 hPa | 9.65 mm | - | 56 W/m² | - |
* Rain latest hour (hover to see other rain measurements)
** Current wind speed in m/s (hover to see current wind gust speed)